Probability
71 72 74 73 72 75 77 76 76 76 73 72 75 78 73 59 40 31 35 46 57 59 49 36 26 20 16 12 8 6 5 3 2 2 1 0 0 0 0 1 1 1 0
65 67 69 68 65 63 61 59 57 57 61 65 67 68 67 61 47 38 38 43 50 51 44 35 26 20 16 14 11 9 6 5 4 3 1 0 0 0 1 2 2 2 1
58 58 57 57 53 47 42 37 33 33 40 48 51 51 53 54 48 40 37 38 39 39 36 32 26 20 16 14 12 9 7 6 5 3 2 1 0 0 1 2 3 3 2
47 45 43 43 40 37 32 25 20 19 25 32 34 33 34 38 39 36 33 32 30 27 27 25 21 19 15 11 8 7 7 6 4 3 2 1 0 0 0 1 2 3 3
35 32 31 29 28 27 24 17 14 14 16 19 19 16 18 24 27 26 24 22 20 18 18 16 14 13 10 6 5 6 8 8 5 3 2 2 1 0 0 0 1 2 2
29 27 24 21 20 19 15 10 10 10 10 9 8 6 7 12 16 15 13 12 11 11 12 11 11 9 5 4 4 6 10 10 6 3 3 3 2 1 1 0 0 1 1
23 24 23 20 19 17 13 9 7 5 4 4 5 4 4 6 9 10 8 6 5 5 7 10 11 9 4 2 2 5 9 9 7 4 4 4 4 3 2 1 0 0 0
14 17 20 20 20 20 18 13 9 4 3 4 5 5 3 4 6 7 6 4 2 2 4 7 10 9 5 3 2 3 5 6 6 4 4 3 3 3 2 1 0 0 0
5 8 11 15 18 19 20 17 13 8 6 6 6 5 3 3 4 4 3 3 1 1 2 4 7 9 7 6 4 2 2 4 4 3 2 1 1 1 1 1 1 0 0
1 2 5 9 11 13 15 15 14 13 9 7 5 4 3 2 2 1 1 1 1 0 1 1 3 6 7 7 6 3 1 1 1 1 1 0 0 0 0 1 3 2 1
0 0 1 3 5 7 9 10 11 12 11 8 7 5 4 3 1 0 0 0 0 0 1 1 3 5 6 6 6 3 0 0 0 0 0 0 0 0 0 2 4 4 2
0 0 0 0 1 3 4 6 7 8 9 11 12 9 7 6 5 3 2 1 1 2 3 3 3 5 7 7 5 2 0 0 0 0 0 0 0 0 0 2 3 3 3
0 0 0 0 0 0 1 2 4 5 6 9 13 13 11 11 12 11 8 5 5 5 6 6 6 7 11 11 5 1 0 0 0 0 0 0 0 0 0 1 1 1 1
0 0 0 0 0 0 0 0 1 2 2 4 7 11 13 16 18 19 16 13 9 6 7 9 14 20 24 20 7 1 0 0 0 0 0 0 0 0 0 0 0 0 0
0 0 0 0 0 0 0 0 0 1 1 1 3 8 14 19 20 19 21 20 14 7 7 15 29 40 39 23 8 3 2 0 0 0 0 0 0 0 0 0 0 0 0
1 1 0 0 0 0 0 1 0 0 1 2 2 5 11 16 17 17 20 23 20 13 10 22 42 54 44 22 7 5 2 0 0 0 0 0 0 0 0 0 0 0 0
0 0 0 0 0 0 0 0 0 0 1 1 2 3 6 9 11 13 16 22 25 23 19 27 45 57 48 27 11 5 2 0 0 0 0 0 0 0 0 0 0 0 0
0 0 0 0 0 0 0 0 0 0 0 1 2 2 3 4 6 8 12 18 27 31 28 30 40 51 50 37 19 7 2 0 0 0 0 0 0 0 0 0 0 0 0
0 0 0 0 0 0 0 0 0 0 0 1 2 3 2 3 4 5 6 12 22 30 33 33 37 42 44 38 24 9 3 1 0 0 0 0 0 0 0 0 0 0 0
0 0 0 0 0 0 0 0 0 0 0 1 2 3 2 1 2 2 3 7 15 25 31 32 33 36 40 36 22 9 3 1 0 0 0 0 0 0 0 0 0 0 0
0 0 0 0 0 0 0 0 0 0 0 1 2 2 2 1 0 1 2 5 10 17 23 26 26 29 36 34 22 9 2 0 0 0 0 0 0 0 0 0 0 0 0
0 0 0 0 0 0 0 0 0 0 0 1 2 2 1 0 0 0 1 3 5 8 12 16 19 21 27 32 23 9 1 0 0 0 0 0 0 0 0 0 0 0 0
0 0 0 0 0 0 0 0 0 0 0 1 2 1 0 0 0 0 0 1 1 2 4 8 11 14 18 23 19 8 1 0 0 0 0 0 0 0 0 0 0 0 0
0 0 0 0 0 0 0 0 0 0 0 1 2 1 0 0 0 0 0 0 0 0 0 2 4 7 9 11 10 6 2 0 0 0 0 0 0 0 0 0 0 0 0
0 0 0 0 0 0 0 0 0 0 0 1 1 0 0 0 0 0 0 0 0 0 0 0 1 1 2 3 4 4 2 0 0 0 0 0 0 0 0 0 0 0 0
0 0 0 0 0 0 0 0 0 0 0 0 0 0 0 0 0 0 0 0 0 0 0 0 0 0 0 1 1 2 2 0 0 0 0 0 0 0 0 0 0 0 0
Wind_Speed
4 5 4 4 5 5 7 8 8 9 10 9 8 9 9 10 8 6 4 13 15 16 18 18 17 17 16 16 16 17 17 17 15 15 15 14 13 13 13 12 12 11 10
4 4 5 5 5 6 6 6 9 7 7 6 8 9 8 8 8 7 5 8 15 17 17 17 18 18 18 17 17 17 18 18 17 16 15 15 14 14 14 14 14 13 12
4 4 4 5 6 6 8 6 8 6 6 7 8 9 8 8 8 8 7 6 7 13 16 17 18 18 19 19 19 19 19 19 19 18 17 16 15 15 15 15 15 15 14
4 4 4 5 5 5 5 6 6 6 7 6 6 7 7 7 9 9 8 8 7 8 13 19 19 19 20 21 21 20 19 19 20 20 19 19 18 17 16 16 16 16 15
4 3 4 4 4 4 4 6 5 6 7 7 7 7 7 8 8 10 10 10 9 9 8 14 20 21 22 23 22 21 20 20 20 20 21 20 20 18 18 17 17 17 17
5 4 3 4 3 2 3 3 5 5 5 5 8 8 7 8 7 8 10 10 10 12 12 11 11 15 22 22 21 20 20 20 20 21 21 21 20 19 19 18 17 18 18
5 4 4 4 3 2 3 3 3 4 4 4 5 5 5 8 8 8 8 8 10 11 11 11 9 9 10 20 21 20 21 21 21 21 21 21 21 20 19 19 19 19 19
4 4 4 4 4 3 3 3 2 2 3 3 4 3 3 4 6 10 8 9 10 8 10 13 11 11 8 8 13 20 20 21 21 21 21 20 21 20 20 20 20 19 19
4 3 3 3 4 4 3 3 2 2 3 3 4 4 2 2 3 6 10 9 9 7 8 8 10 11 11 7 8 17 21 20 21 21 21 20 19 19 19 20 20 20 20
5 3 2 3 4 4 3 3 2 2 2 3 4 3 4 1 2 1 4 6 8 7 6 6 8 9 9 7 8 12 19 19 18 19 19 19 19 19 19 19 19 19 20
6 4 2 1 2 3 3 4 4 3 2 3 3 3 4 3 4 2 2 2 4 5 5 4 3 4 7 6 6 10 17 18 17 16 16 16 17 18 19 19 20 20 20
5 4 2 0 1 2 3 4 4 5 3 4 4 4 3 3 3 3 3 4 4 4 5 4 4 3 4 5 6 9 15 16 16 15 14 14 15 17 18 19 20 20 20
6 6 5 2 2 2 3 3 4 4 4 5 4 4 4 5 4 3 3 3 3 3 4 4 4 3 4 4 5 8 10 12 12 13 12 13 13 14 16 17 18 19 18
7 7 7 5 5 4 5 4 3 4 4 4 5 5 4 5 5 4 3 2 2 2 4 4 4 4 3 5 7 6 6 9 10 11 12 12 12 13 14 15 16 16 16
9 9 8 8 7 7 6 5 4 5 4 4 4 4 4 4 5 5 4 2 2 3 3 4 4 5 5 6 7 4 5 6 8 9 10 11 11 12 12 13 14 14 14
8 9 9 8 8 8 7 6 6 6 6 5 4 4 4 4 4 5 5 4 3 2 3 2 4 6 6 7 6 4 6 7 4 5 7 9 10 10 11 11 12 12 12
8 9 9 9 9 9 9 8 8 7 7 7 6 6 6 5 4 4 4 4 4 3 3 2 3 6 6 7 6 5 6 5 4 4 4 6 7 8 9 9 10 10 10
8 9 9 9 10 11 9 9 9 10 9 9 8 8 7 6 6 4 4 5 4 4 3 3 4 5 6 8 7 5 5 6 6 7 7 7 7 7 8 8 9 9 9
8 9 9 10 10 10 10 10 10 10 10 9 9 9 9 8 7 5 5 4 4 4 2 3 4 5 5 7 8 7 8 6 6 7 10 11 11 12 11 11 11 12 12
9 10 10 10 10 10 11 11 11 11 10 10 9 9 9 9 8 7 6 5 4 3 3 3 3 4 6 8 8 7 6 5 5 5 8 9 13 15 14 13 13 14 14
12 10 10 10 10 10 11 11 10 13 11 11 10 10 10 11 12 9 7 7 6 5 3 4 4 4 5 8 8 6 8 6 5 4 5 5 6 7 8 11 13 15 15
10 10 11 12 12 12 14 13 10 10 10 9 9 10 10 11 12 13 13 11 9 7 6 5 5 5 6 7 7 8 9 8 4 3 4 5 5 6 5 6 10 14 15
11 11 12 12 13 12 15 15 15 11 11 9 9 9 11 12 13 10 12 13 12 11 9 6 6 5 4 5 7 10 10 8 6 6 6 5 5 6 6 7 12 14 15
10 11 11 12 12 13 15 15 15 13 11 11 10 10 10 9 9 9 10 11 10 10 11 8 6 6 4 3 5 7 8 8 9 5 5 5 4 5 6 6 11 13 13
11 11 11 11 11 12 14 14 13 9 9 11 11 10 9 10 10 11 9 9 9 8 11 12 9 7 7 7 6 6 10 11 8 4 2 5 5 5 5 5 7 11 11
11 11 11 10 11 11 11 12 12 8 8 8 8 7 9 11 12 12 9 8 8 8 8 9 8 8 7 8 10 9 10 12 9 5 4 6 7 5 5 3 4 5 6
Wind_Direction
256 258 266 268 256 236 217 220 222 214 213 219 219 213 209 211 223 232 199 188 189 193 195 199 202 208 212 214 213 212 209 207 205 204 204 206 206 203 200 198 196 193 190
278 278 273 269 264 261 256 235 231 229 219 218 222 223 214 213 220 227 221 203 203 203 204 206 209 212 214 216 216 213 210 208 206 205 208 210 209 208 206 202 200 198 195
304 297 283 270 261 259 260 255 247 241 233 225 223 227 223 217 214 217 225 219 211 213 213 215 216 217 217 218 217 215 211 208 206 205 206 210 211 210 209 206 202 200 198
318 308 291 278 271 260 254 251 246 243 238 233 229 229 225 217 219 215 218 222 218 220 218 219 219 221 221 221 219 216 211 208 205 205 205 208 210 210 210 208 205 202 200
323 307 297 290 289 275 257 256 248 235 233 234 236 234 229 220 217 220 218 221 221 220 222 218 217 221 222 223 221 218 211 208 205 206 207 209 211 210 210 209 207 204 201
329 316 297 287 282 280 275 261 261 249 233 230 240 240 226 224 215 216 218 219 220 222 222 224 213 222 223 223 220 216 212 208 206 207 208 209 211 211 210 210 208 207 204
338 326 322 307 283 266 261 254 243 251 242 229 235 247 237 222 213 214 214 216 219 220 217 216 209 208 213 219 217 213 212 210 208 208 208 208 211 210 209 209 209 208 206
334 332 334 320 313 290 284 285 264 256 258 230 220 236 240 228 221 217 207 212 217 214 216 216 202 199 202 198 211 213 213 212 212 210 209 208 210 209 207 208 208 208 207
318 323 323 322 319 307 285 273 257 250 263 271 233 224 232 235 234 207 204 206 205 204 210 212 200 194 197 192 194 208 212 212 213 212 211 208 208 207 208 209 209 208 207
296 291 307 333 330 318 320 302 278 252 242 269 286 257 246 252 272 281 203 200 195 196 204 210 205 188 189 188 189 191 205 210 213 215 213 210 208 207 208 210 211 209 208
280 269 263 317 331 323 340 339 334 307 259 250 271 284 266 249 225 238 229 206 187 185 194 204 204 180 183 183 182 184 191 201 206 210 211 210 209 208 209 211 212 211 210
294 290 270 224 301 327 338 328 323 314 307 289 281 279 276 261 238 230 218 204 191 193 182 187 192 177 171 175 190 177 181 192 197 202 206 209 210 210 210 211 213 214 214
314 316 322 295 277 277 288 291 294 295 302 301 290 282 281 276 279 261 235 222 198 182 163 172 174 169 177 142 128 141 168 179 190 198 203 208 211 211 209 209 212 215 215
298 305 311 306 287 265 261 261 273 275 271 278 285 296 298 294 298 290 268 242 220 191 171 175 163 162 150 122 130 144 158 176 191 199 204 207 210 211 209 207 208 210 212
309 314 320 309 299 286 264 250 249 254 261 257 265 276 287 293 303 300 293 272 225 216 206 182 159 149 132 117 143 156 138 165 188 197 201 203 205 205 205 205 205 207 208
298 299 295 294 291 286 276 255 247 242 239 240 236 244 256 276 286 295 301 291 265 238 232 187 162 147 143 140 145 130 110 131 145 182 193 197 197 198 198 199 200 202 204
306 302 299 295 291 285 277 266 255 246 238 237 237 233 230 237 261 276 288 290 276 254 238 222 141 137 129 128 135 135 143 131 96 101 150 167 174 179 184 185 183 183 186
293 294 292 290 287 284 279 273 263 255 241 233 229 228 228 226 228 243 259 273 274 261 232 212 157 148 147 137 136 136 121 99 92 79 92 106 119 129 140 146 148 149 148
291 290 287 285 283 282 280 277 270 261 252 241 231 224 222 218 220 220 229 247 265 268 256 225 186 165 154 142 131 116 99 97 93 93 85 85 92 98 104 111 116 119 120
292 287 285 283 280 278 277 275 272 266 259 252 240 229 222 217 215 212 218 222 232 248 250 240 212 173 161 149 138 132 122 108 98 85 79 83 87 87 92 99 105 108 109
291 289 289 286 282 277 269 263 260 265 258 251 246 236 228 221 214 209 212 208 210 215 220 227 223 195 170 161 159 148 134 120 102 113 107 96 90 84 82 90 101 108 108
290 289 286 284 280 277 279 280 275 273 271 257 250 243 236 230 220 209 207 197 195 204 205 209 218 207 195 173 162 153 144 145 135 135 114 95 91 89 80 80 102 108 109
294 289 284 280 276 271 269 267 264 263 264 257 249 244 241 232 212 203 202 199 201 204 199 195 206 207 194 180 165 161 160 157 134 141 119 92 81 80 75 87 102 107 111
292 288 284 282 277 272 266 257 253 254 256 251 243 238 233 241 227 206 200 201 205 203 200 201 208 203 197 185 175 166 152 124 113 120 116 105 98 91 88 86 98 108 113
293 288 286 281 276 272 267 257 243 250 247 247 241 234 227 227 224 210 204 200 201 201 202 205 202 194 189 197 176 153 149 145 138 132 118 116 125 105 88 88 98 106 111
294 293 290 286 282 275 269 255 234 240 242 243 240 234 231 229 214 201 203 200 203 199 188 187 192 194 194 193 181 173 168 159 146 143 159 128 145 134 112 98 115 122 112